�������C�����ː����j�^�v���󋵏��
Date,Time,Cs137(Bq/L),Cs134(Bq/L),�S��(Bq/L)
2019/11/02,00:00,0.96,ND,ND
2019/11/02,00:10,0.95,ND,ND
2019/11/02,00:20,0.95,ND,ND
2019/11/02,00:30,0.95,ND,ND
2019/11/02,00:40,0.98,ND,ND
2019/11/02,00:50,0.96,ND,ND
2019/11/02,01:00,0.98,ND,ND
2019/11/02,01:10,0.99,ND,ND
2019/11/02,01:20,0.99,ND,ND
2019/11/02,01:30,1.0,ND,10
2019/11/02,01:40,1.0,ND,9.7
2019/11/02,01:50,1.0,ND,ND
2019/11/02,02:00,1.0,ND,ND
2019/11/02,02:10,1.0,ND,ND
2019/11/02,02:20,1.0,ND,ND
2019/11/02,02:30,1.0,ND,ND
2019/11/02,02:40,1.0,ND,ND
2019/11/02,02:50,1.0,ND,ND
2019/11/02,03:00,0.98,ND,ND
2019/11/02,03:10,0.98,ND,ND
2019/11/02,03:20,0.99,ND,ND
2019/11/02,03:30,0.98,ND,ND
2019/11/02,03:40,0.96,ND,ND
2019/11/02,03:50,0.95,ND,ND
2019/11/02,04:00,0.95,ND,ND
2019/11/02,04:10,0.95,ND,ND
2019/11/02,04:20,0.94,ND,ND
2019/11/02,04:30,0.93,ND,ND
2019/11/02,04:40,0.93,ND,ND
2019/11/02,04:50,0.93,ND,ND
2019/11/02,05:00,0.95,ND,ND
2019/11/02,05:10,0.95,ND,ND
2019/11/02,05:20,0.96,ND,ND
2019/11/02,05:30,0.96,ND,ND
2019/11/02,05:40,0.95,ND,ND
2019/11/02,05:50,0.87,ND,ND
2019/11/02,06:00,0.87,ND,ND
2019/11/02,06:10,0.87,ND,ND
2019/11/02,06:20,0.84,ND,ND
2019/11/02,06:30,0.92,ND,9.0
2019/11/02,06:40,0.93,ND,11
2019/11/02,06:50,0.92,ND,10
2019/11/02,07:00,0.90,ND,11
2019/11/02,07:10,0.88,ND,ND
2019/11/02,07:20,0.89,ND,ND
2019/11/02,07:30,0.87,ND,ND
2019/11/02,07:40,0.86,ND,ND
2019/11/02,07:50,0.76,ND,ND
2019/11/02,08:00,0.76,ND,ND
2019/11/02,08:10,0.76,ND,ND
2019/11/02,08:20,0.74,ND,ND
2019/11/02,08:30,0.74,ND,ND
2019/11/02,08:40,0.74,ND,ND
2019/11/02,08:50,0.73,ND,ND
2019/11/02,09:00,0.73,ND,ND
2019/11/02,09:10,0.75,ND,ND
2019/11/02,09:20,0.77,ND,ND
2019/11/02,09:30,0.87,ND,ND
2019/11/02,09:40,0.86,ND,ND
2019/11/02,09:50,0.87,ND,ND
2019/11/02,10:00,0.87,ND,ND
2019/11/02,10:10,0.85,ND,ND
2019/11/02,10:20,0.84,ND,ND
2019/11/02,10:30,0.84,ND,ND
2019/11/02,10:40,0.85,ND,ND
2019/11/02,10:50,0.85,ND,ND
2019/11/02,11:00,0.85,ND,ND
2019/11/02,11:10,0.84,ND,ND
2019/11/02,11:20,0.85,ND,ND
2019/11/02,11:30,0.85,ND,ND
2019/11/02,11:40,0.85,ND,ND
2019/11/02,11:50,0.85,ND,ND
2019/11/02,12:00,0.79,ND,ND
2019/11/02,12:10,0.79,ND,ND
2019/11/02,12:20,0.89,ND,ND
2019/11/02,12:30,0.89,ND,ND
2019/11/02,12:40,0.89,ND,ND
2019/11/02,12:50,0.87,ND,ND
2019/11/02,13:00,0.85,ND,ND
2019/11/02,13:10,0.82,ND,ND
2019/11/02,13:20,0.80,ND,9.5
2019/11/02,13:30,0.85,ND,10
2019/11/02,13:40,0.84,ND,12
2019/11/02,13:50,0.83,ND,14
2019/11/02,14:00,0.84,ND,12
2019/11/02,14:10,0.75,ND,9.0
2019/11/02,14:20,0.78,ND,ND
2019/11/02,14:30,0.84,ND,ND
2019/11/02,14:40,0.74,ND,ND
2019/11/02,14:50,0.77,ND,ND
2019/11/02,15:00,0.77,ND,ND
2019/11/02,15:10,0.73,ND,ND
2019/11/02,15:20,0.72,ND,ND
2019/11/02,15:30,0.70,ND,8.8
2019/11/02,15:40,0.70,ND,ND
2019/11/02,15:50,0.69,ND,12
2019/11/02,16:00,0.67,ND,13
2019/11/02,16:10,0.70,ND,13
2019/11/02,16:20,0.70,ND,12
2019/11/02,16:30,0.72,ND,11
2019/11/02,16:40,0.70,ND,12
2019/11/02,16:50,0.70,ND,9.7
2019/11/02,17:00,0.68,ND,8.9
2019/11/02,17:10,0.77,ND,ND
2019/11/02,17:20,0.78,ND,8.8
2019/11/02,17:30,0.81,ND,ND
2019/11/02,17:40,0.82,ND,ND
2019/11/02,17:50,0.83,ND,ND
2019/11/02,18:00,0.83,ND,ND
2019/11/02,18:10,0.83,ND,ND
2019/11/02,18:20,0.81,ND,ND
2019/11/02,18:30,0.78,ND,ND
2019/11/02,18:40,0.79,ND,ND
2019/11/02,18:50,0.78,ND,ND
2019/11/02,19:00,0.82,ND,ND
2019/11/02,19:10,0.81,ND,ND
2019/11/02,19:20,0.83,ND,ND
2019/11/02,19:30,0.83,ND,ND
2019/11/02,19:40,0.83,ND,ND
2019/11/02,19:50,0.84,ND,ND
2019/11/02,20:00,0.84,ND,ND
2019/11/02,20:10,0.78,ND,ND
2019/11/02,20:20,0.87,ND,ND
2019/11/02,20:30,0.89,ND,ND
2019/11/02,20:40,0.90,ND,ND
2019/11/02,20:50,0.92,ND,ND
2019/11/02,21:00,0.92,ND,ND
2019/11/02,21:10,0.92,ND,ND
2019/11/02,21:20,0.93,ND,ND
2019/11/02,21:30,0.96,ND,ND
2019/11/02,21:40,0.94,ND,ND
2019/11/02,21:50,0.94,ND,ND
2019/11/02,22:00,0.94,ND,ND
2019/11/02,22:10,0.95,ND,ND
2019/11/02,22:20,0.96,ND,8.8
2019/11/02,22:30,0.85,ND,ND
2019/11/02,22:40,0.87,ND,ND
2019/11/02,22:50,0.87,ND,ND
2019/11/02,23:00,0.89,ND,ND
2019/11/02,23:10,0.87,ND,ND
2019/11/02,23:20,0.87,ND,ND
2019/11/02,23:30,0.89,ND,ND
2019/11/02,23:40,0.98,ND,ND
2019/11/02,23:50,0.92,ND,ND
